Location: Peebles
(55.6412°N, 3.1714°W)
Time: 21:21:30
(UTC+00:00)

Cosmos 1295 Rocket - Visible Passes

Search period start: 21 January 2022 00:00
Search period end: 31 January 2022 00:00
Orbit: 944 x 993 km, 82.9° (Epoch: 21 January)

Date Brightness Start Highest point End Pass type
(mag) Time Alt. Az. Time Alt. Az. Time Alt. Az.
21 Jan 5.7 05:10:35 10° SSE 05:16:20 42° E 05:22:10 10° NNE visible
21 Jan 4.7 06:55:35 10° SW 07:01:33 48° WNW 07:07:39 10° N visible
21 Jan 6.0 17:42:09 10° NNW 17:47:57 39° W 17:53:45 10° SSW visible
22 Jan 7.2 03:52:16 10° ESE 03:55:30 15° ENE 03:58:45 10° NE visible
22 Jan 4.9 05:33:24 10° S 05:39:31 64° E 05:45:44 10° NNE visible
22 Jan 5.1 07:19:42 10° SW 07:25:14 33° WNW 07:30:53 10° N visible
22 Jan 6.8 18:05:54 10° NNW 18:10:59 26° W 18:16:05 10° SW visible
23 Jan 6.7 04:13:41 10° SE 04:18:21 23° E 04:23:03 10° NNE visible
23 Jan 4.4 05:56:37 10° SSW 06:02:50 86° WNW 06:09:12 10° N visible
23 Jan 7.2 18:29:59 10° NW 18:33:53 17° WNW 18:37:47 10° WSW visible
24 Jan 6.0 04:35:49 10° SSE 04:41:19 34° E 04:46:54 10° NNE visible
24 Jan 4.5 06:20:11 10° SSW 06:26:18 58° WNW 06:32:33 10° N visible
24 Jan 5.7 17:06:53 10° NNW 17:12:56 48° W 17:18:58 10° SSW visible
24 Jan 7.6 18:55:15 10° NW 18:56:38 11° WNW 18:58:02 10° W visible
25 Jan 7.4 03:18:35 10° E 03:20:40 12° ENE 03:22:45 10° NE visible
25 Jan 5.2 04:58:27 10° SSE 05:04:27 52° E 05:10:32 10° NNE visible
25 Jan 4.9 06:44:07 10° SW 06:49:56 39° WNW 06:55:50 10° N visible
25 Jan 6.5 17:30:33 10° NNW 17:36:02 32° W 17:41:30 10° SW visible
26 Jan 6.9 03:39:19 10° ESE 03:43:26 19° ENE 03:47:35 10° NE visible
26 Jan 4.6 05:21:29 10° S 05:27:42 79° E 05:34:02 10° NNE visible
26 Jan 5.3 07:08:27 10° WSW 07:13:42 27° WNW 07:19:00 10° N visible
26 Jan 7.1 17:54:27 10° NNW 17:59:00 21° WNW 18:03:32 10° SW visible
27 Jan 6.3 04:01:10 10° SE 04:06:21 28° E 04:11:35 10° NNE visible
27 Jan 4.4 05:44:53 10° SSW 05:51:07 70° WNW 05:57:27 10° N visible
27 Jan 5.7 07:33:15 10° W 07:37:37 19° NW 07:42:02 10° N visible
27 Jan 7.3 18:18:53 10° NW 18:21:49 14° WNW 18:24:45 10° W visible
28 Jan 5.6 04:23:35 10° SSE 04:29:24 43° E 04:35:18 10° NNE visible
28 Jan 4.7 06:08:39 10° SW 06:14:39 47° WNW 06:20:46 10° N visible
29 Jan 7.0 03:05:11 10° ESE 03:08:33 15° ENE 03:11:57 10° NE visible
29 Jan 4.8 04:46:26 10° S 04:52:36 65° E 04:58:52 10° NNE visible
29 Jan 5.1 06:32:47 10° SW 06:38:21 32° WNW 06:43:59 10° N visible
29 Jan 6.8 17:19:01 10° NNW 17:24:04 26° W 17:29:07 10° SW visible
30 Jan 6.5 03:26:38 10° SE 03:31:24 23° E 03:36:13 10° NNE visible
30 Jan 4.4 05:09:39 10° SSW 05:15:55 85° W 05:22:19 10° N visible
30 Jan 5.6 06:57:21 10° WSW 07:02:12 23° NW 07:07:06 10° N visible
30 Jan 7.1 17:43:08 10° NW 17:46:57 17° WNW 17:50:47 10° WSW visible
